Simultaneous Nadir Overpasses (SNOs) Predictions

Prediction of SNOs between GOES-14 and AQUA Satellite Orbit:

Table of predicted SNOs for the next 14.0 days since TLE Epoch: 9/17/2022
Index Date Time (GOES-14) GOES-14 Lat,Lon AQUA Lat,Lon Distance(km) Time Diff (sec)
1 09/18/2022 20:35:47 -0.34,-104.48 -0.14,-103.45 116.15 80
2 09/19/2022 08:56:55 0.32,-104.42 1.19,-108.58 472.81 80
3 09/20/2022 20:23:04 -0.34,-104.47 0.56,-100.36 467.32 80
4 09/21/2022 08:44:11 0.32,-104.40 0.55,-105.48 122.54 80
5 09/23/2022 08:28:47 0.32,-104.38 -0.11,-102.38 227.92 80
6 09/23/2022 20:50:03 -0.30,-104.42 -0.95,-107.54 354.94 80
7 09/25/2022 20:37:18 -0.30,-104.41 -0.33,-104.43 3.54 80
8 09/27/2022 20:27:14 -0.31,-104.40 0.38,-101.34 349.17 80
9 09/28/2022 08:48:21 0.28,-104.39 0.72,-106.46 234.66 80
10 09/30/2022 08:32:56 0.29,-104.37 0.06,-103.35 116.07 80
11 09/30/2022 20:54:11 -0.26,-104.35 -1.16,-108.50 472.83 80
